Location: Acton
(51.4942°N, 0.2232°W)
Time: 13:40:58
(UTC+00:00)

Okean 1-7 Rocket - Pass Details

Date: 22 January 2021
Orbit: 615 x 650 km, 82.5° (Epoch: 28 February)

Event Time Altitude Azimuth Distance (km) Brightness Sun altitude
Rises 19:58:17 0° 243° (WSW) 2,959 7.8 -31.5°
Reaches altitude 10° 20:01:38 10° 270° (W) 2,058 7.1 -32.0°
Maximum altitude 20:03:58 14° 301° (WNW) 1,823 6.6 -32.3°
Drops below altitude 10° 20:06:19 10° 332° (NNW) 2,068 6.6 -32.7°
Enters shadow 20:09:30 - 357° (N) 2,916 7.2 -33.2°
